Weather History for Hebbronville, TX

Change the Weather History Date:

Friday, February 8, 2013

  Actual Average (KLRD) Record (KLRD)
Temperature  
Mean Temperature 64 °F 60 °F  
Max Temperature 72 °F 71 °F 94 °F (1918)
Min Temperature 56 °F 49 °F 21 °F (1933)
Degree Days  
Heating Degree Days 0 7  
Month to date heating degree days 59  
Since 1 July heating degree days 738  
Cooling Degree Days 0 2  
Month to date cooling degree days 12  
Year to date cooling degree days 40  
Growing Degree Days 14 (Base 50)    
Moisture  
Dew Point 45 °F    
Average Humidity 56    
Maximum Humidity 89    
Minimum Humidity 23    
Precipitation  
Precipitation 0.00 in 0.04 in 0.88 in (1972)
Month to date precipitation 0.26  
Year to date precipitation 1.16  
Sea Level Pressure  
Sea Level Pressure 30.11 in    
Wind  
Wind Speed 7 mph (NE)    
Max Wind Speed 15 mph    
Max Gust Speed 20 mph    
Visibility 9 miles    
Events      
T = Trace of Precipitation, MM = Missing Value Source: NWS Daily Summary

Daily Weather History Graph

Daily Weather History Graph

Search for Another Location

Airport:

Trip Planner

Search our weather history database for the weather conditions in past years. The results will help you decide how hot, cold, wet, or windy it might be!

Date:

Astronomy

Feb. 08, 2013 Rise Set
Actual Time 7:16 AM CST 6:21 PM CST
Civil Twilight 6:52 AM CST 6:46 PM CST
Nautical Twilight 6:25 AM CST 7:13 PM CST
Astronomical Twilight 5:57 AM CST 7:41 PM CST
Moon 5:42 AM CST (2/8) 4:59 PM CST (2/8)
Length of Visible Light 11h 53m
Length of Day
11h 05m
Waning Crescent, 3% of the Moon is Illuminated
Feb 8
Waning Crescent
Feb 10
New
Feb 17
First Quarter
Feb 25
Full
Mar 4
Last Quarter

Hourly Weather History & Observations

Time (CST) Temp. Dew Point Humidity Pressure Visibility Wind Dir Wind Speed Gust Speed Precip Events Conditions
12:15 AM 62.1 °F 58.5 °F 88% 30.02 in 4.0 mi SW 3.5 mph - N/A   Clear
12:35 AM 62.1 °F 58.8 °F 89% 30.02 in 4.0 mi West 4.6 mph - N/A   Clear
12:55 AM 62.2 °F 58.8 °F 89% 30.02 in 5.0 mi Calm Calm - N/A   Clear
1:15 AM 61.3 °F 57.7 °F 88% 30.03 in 3.0 mi Calm Calm - N/A   Clear
1:35 AM 60.8 °F 57.4 °F 88% 30.05 in 4.0 mi Calm Calm - N/A   Clear
1:55 AM 60.4 °F 57.0 °F 88% 30.05 in 4.0 mi NW 3.5 mph - N/A   Clear
2:15 AM 60.1 °F 56.8 °F 89% 30.06 in 5.0 mi NW 4.6 mph - N/A   Clear
2:35 AM 60.1 °F 56.7 °F 88% 30.06 in 5.0 mi NW 5.8 mph - N/A   Clear
2:55 AM 60.4 °F 56.8 °F 88% 30.06 in 5.0 mi NNW 4.6 mph - N/A   Clear
3:35 AM 61.0 °F 57.4 °F 88% 30.07 in 7.0 mi NNW 4.6 mph - N/A   Scattered Clouds
3:55 AM 61.3 °F 57.4 °F 87% 30.08 in 5.0 mi North 4.6 mph - N/A   Mostly Cloudy
4:15 AM 60.8 °F 56.8 °F 87% 30.08 in 5.0 mi North 5.8 mph - N/A   Scattered Clouds
4:35 AM 61.2 °F 57.6 °F 88% 30.08 in 5.0 mi NNE 10.4 mph - N/A   Clear
5:15 AM 60.8 °F 54.5 °F 80% 30.11 in 10.0 mi NNE 11.5 mph - N/A   Clear
5:35 AM 60.3 °F 52.7 °F 76% 30.11 in 10.0 mi NNE 9.2 mph - N/A   Clear
5:55 AM 59.5 °F 51.3 °F 74% 30.12 in 10.0 mi NNE 11.5 mph - N/A   Clear
6:15 AM 59.0 °F 50.9 °F 74% 30.12 in 7.0 mi NNE 15.0 mph - N/A   Clear
6:35 AM 58.8 °F 48.0 °F 67% 30.13 in 7.0 mi NNE 12.7 mph - N/A   Clear
6:55 AM 58.3 °F 46.8 °F 66% 30.14 in 10.0 mi NNE 12.7 mph - N/A   Clear
7:15 AM 58.1 °F 46.9 °F 66% 30.14 in 10.0 mi North 11.5 mph - N/A   Clear
7:35 AM 57.6 °F 46.4 °F 66% 30.16 in 10.0 mi North 11.5 mph 18.4 mph N/A   Clear
7:55 AM 57.2 °F 45.0 °F 64% 30.18 in 10.0 mi NNE 12.7 mph 19.6 mph N/A   Clear
8:15 AM 57.2 °F 44.6 °F 63% 30.18 in 10.0 mi NNE 12.7 mph 18.4 mph N/A   Scattered Clouds
8:35 AM 57.2 °F 44.6 °F 63% 30.19 in 10.0 mi North 10.4 mph - N/A   Mostly Cloudy
8:55 AM 57.2 °F 44.6 °F 63% 30.21 in 10.0 mi NNE 12.7 mph - N/A   Overcast
9:15 AM 57.6 °F 44.6 °F 62% 30.21 in 10.0 mi North 10.4 mph - N/A   Overcast
9:35 AM 58.1 °F 44.4 °F 60% 30.21 in 10.0 mi NNE 11.5 mph - N/A   Overcast
9:55 AM 58.6 °F 44.1 °F 58% 30.22 in 10.0 mi NNE 11.5 mph - N/A   Overcast
10:15 AM 59.7 °F 44.1 °F 56% 30.21 in 10.0 mi NNE 12.7 mph - N/A   Overcast
10:35 AM 61.5 °F 43.9 °F 52% 30.22 in 10.0 mi North 12.7 mph - N/A   Scattered Clouds
10:55 AM 62.8 °F 43.2 °F 49% 30.21 in 10.0 mi NNE 12.7 mph - N/A   Clear
11:15 AM 63.1 °F 42.4 °F 47% 30.21 in 10.0 mi NNE 15.0 mph - N/A   Scattered Clouds
11:35 AM 63.7 °F 41.5 °F 44% 30.21 in 10.0 mi NNE 13.8 mph - N/A   Mostly Cloudy
11:55 AM 64.2 °F 41.4 °F 43% 30.20 in 10.0 mi NE 10.4 mph - N/A   Mostly Cloudy
12:15 PM 65.1 °F 40.3 °F 40% 30.19 in 10.0 mi NE 11.5 mph 17.3 mph N/A   Scattered Clouds
12:35 PM 66.7 °F 38.3 °F 35% 30.19 in 10.0 mi ENE 10.4 mph - N/A   Clear
12:55 PM 67.5 °F 38.5 °F 35% 30.17 in 10.0 mi NNE 8.1 mph - N/A   Clear
1:15 PM 68.7 °F 37.9 °F 32% 30.16 in 10.0 mi NNE 9.2 mph - N/A   Clear
1:35 PM 69.8 °F 36.7 °F 30% 30.15 in 10.0 mi NE 10.4 mph - N/A   Mostly Cloudy
1:55 PM 70.3 °F 34.7 °F 27% 30.13 in 10.0 mi East 11.5 mph 16.1 mph N/A   Overcast
2:15 PM 70.7 °F 33.6 °F 26% 30.13 in 10.0 mi NE 12.7 mph - N/A   Overcast
2:35 PM 71.1 °F 34.3 °F 26% 30.11 in 10.0 mi NE 10.4 mph - N/A   Scattered Clouds
2:55 PM 72.0 °F 34.3 °F 25% 30.11 in 10.0 mi ENE 10.4 mph - N/A   Clear
3:15 PM 72.3 °F 34.2 °F 25% 30.11 in 10.0 mi ENE 9.2 mph - N/A   Scattered Clouds
3:35 PM 72.3 °F 33.4 °F 24% 30.10 in 10.0 mi East 8.1 mph - N/A   Mostly Cloudy
3:55 PM 72.5 °F 32.2 °F 23% 30.09 in 10.0 mi ENE 10.4 mph - N/A   Scattered Clouds
4:15 PM 72.7 °F 32.5 °F 23% 30.08 in 10.0 mi NE 9.2 mph - N/A   Clear
4:35 PM 72.3 °F 33.6 °F 24% 30.08 in 10.0 mi NE 11.5 mph - N/A   Mostly Cloudy
4:55 PM 72.1 °F 33.4 °F 24% 30.08 in 10.0 mi ENE 10.4 mph - N/A   Scattered Clouds
5:15 PM 72.0 °F 33.1 °F 24% 30.08 in 10.0 mi ENE 12.7 mph 18.4 mph N/A   Scattered Clouds
5:35 PM 71.6 °F 33.8 °F 25% 30.08 in 10.0 mi East 10.4 mph - N/A   Clear
5:55 PM 70.5 °F 34.7 °F 27% 30.08 in 10.0 mi East 9.2 mph - N/A   Clear
6:15 PM 69.3 °F 36.5 °F 30% 30.08 in 10.0 mi ENE 10.4 mph - N/A   Scattered Clouds
6:35 PM 67.6 °F 37.8 °F 33% 30.08 in 10.0 mi East 6.9 mph - N/A   Clear
6:55 PM 66.4 °F 39.2 °F 37% 30.09 in 10.0 mi East 5.8 mph - N/A   Clear
7:15 PM 65.1 °F 39.9 °F 40% 30.08 in 10.0 mi East 4.6 mph - N/A   Scattered Clouds
7:35 PM 63.7 °F 40.5 °F 43% 30.08 in 10.0 mi East 4.6 mph - N/A   Scattered Clouds
7:55 PM 62.6 °F 41.0 °F 45% 30.08 in 10.0 mi East 4.6 mph - N/A   Clear
8:15 PM 61.7 °F 41.9 °F 48% 30.08 in 10.0 mi East 5.8 mph - N/A   Clear
8:35 PM 61.0 °F 42.4 °F 51% 30.09 in 10.0 mi East 4.6 mph - N/A   Clear
8:55 PM 60.3 °F 42.8 °F 53% 30.09 in 10.0 mi East 4.6 mph - N/A   Clear
9:15 PM 60.3 °F 43.5 °F 54% 30.08 in 10.0 mi East 8.1 mph - N/A   Clear
9:35 PM 60.4 °F 45.0 °F 57% 30.09 in 10.0 mi ESE 9.2 mph - N/A   Clear
9:55 PM 59.9 °F 46.4 °F 61% 30.08 in 10.0 mi ESE 8.1 mph - N/A   Clear
10:15 PM 59.2 °F 45.9 °F 61% 30.08 in 10.0 mi ESE 10.4 mph - N/A   Clear
10:35 PM 58.6 °F 46.4 °F 64% 30.08 in 10.0 mi ESE 8.1 mph - N/A   Clear
10:55 PM 57.7 °F 47.5 °F 69% 30.08 in 10.0 mi ESE 9.2 mph - N/A   Clear
11:15 PM 57.2 °F 48.2 °F 72% 30.08 in 10.0 mi ESE 8.1 mph - N/A   Clear
11:35 PM 57.0 °F 48.9 °F 74% 30.08 in 10.0 mi ESE 8.1 mph - N/A   Clear
11:55 PM 56.8 °F 49.8 °F 77% 30.07 in 10.0 mi East 8.1 mph - N/A   Mostly Cloudy